<?xml version="1.0"?>
<gpx xmlns="http://www.topografix.com/GPX/1/1" xmlns:xsi="http://www.w3.org/2001/XMLSchema-instance" version="1.1" creator="GPX RubyGem 1.0.0 -- http://dougfales.github.io/gpx/" xsi:schemaLocation="http://www.topografix.com/GPX/1/1 http://www.topografix.com/GPX/1/1/gpx.xsd">
  <metadata>
    <name/>
    <time>2026-05-09T02:13:26+00:00</time>
    <bound minlat="90.0" minlon="180.0" maxlat="-90.0" maxlon="-180.0"/>
  </metadata>
  <trk>
    <name/>
    <trkseg>
      <trkpt lat="43.555399" lon="10.400057">
        <time>1970-01-01T00:00:00+00:00</time>
        <ele>129.0</ele>
      </trkpt>
      <trkpt lat="43.555296" lon="10.399832">
        <time>1970-01-01T00:00:00+00:00</time>
        <ele>129.0</ele>
      </trkpt>
      <trkpt lat="43.555256" lon="10.399592">
        <time>1970-01-01T00:00:00+00:00</time>
        <ele>128.0</ele>
      </trkpt>
      <trkpt lat="43.555319" lon="10.399373">
        <time>1970-01-01T00:00:00+00:00</time>
        <ele>127.0</ele>
      </trkpt>
      <trkpt lat="43.555039" lon="10.399402">
        <time>1970-01-01T00:00:00+00:00</time>
        <ele>129.0</ele>
      </trkpt>
      <trkpt lat="43.55471" lon="10.399485">
        <time>1970-01-01T00:00:00+00:00</time>
        <ele>134.0</ele>
      </trkpt>
      <trkpt lat="43.554342" lon="10.399639">
        <time>1970-01-01T00:00:00+00:00</time>
        <ele>142.0</ele>
      </trkpt>
      <trkpt lat="43.553939" lon="10.399719">
        <time>1970-01-01T00:00:00+00:00</time>
        <ele>151.0</ele>
      </trkpt>
      <trkpt lat="43.55355" lon="10.399826">
        <time>1970-01-01T00:00:00+00:00</time>
        <ele>154.0</ele>
      </trkpt>
      <trkpt lat="43.55344" lon="10.399897">
        <time>1970-01-01T00:00:00+00:00</time>
        <ele>156.0</ele>
      </trkpt>
      <trkpt lat="43.552819" lon="10.400383">
        <time>1970-01-01T00:00:00+00:00</time>
        <ele>158.0</ele>
      </trkpt>
      <trkpt lat="43.552557" lon="10.400801">
        <time>1970-01-01T00:00:00+00:00</time>
        <ele>163.0</ele>
      </trkpt>
      <trkpt lat="43.552486" lon="10.400857">
        <time>1970-01-01T00:00:00+00:00</time>
        <ele>164.0</ele>
      </trkpt>
      <trkpt lat="43.552134" lon="10.400958">
        <time>1970-01-01T00:00:00+00:00</time>
        <ele>164.0</ele>
      </trkpt>
      <trkpt lat="43.551845" lon="10.401086">
        <time>1970-01-01T00:00:00+00:00</time>
        <ele>165.0</ele>
      </trkpt>
      <trkpt lat="43.551524" lon="10.401348">
        <time>1970-01-01T00:00:00+00:00</time>
        <ele>170.0</ele>
      </trkpt>
      <trkpt lat="43.551123" lon="10.401803">
        <time>1970-01-01T00:00:00+00:00</time>
        <ele>175.0</ele>
      </trkpt>
      <trkpt lat="43.550983" lon="10.402001">
        <time>1970-01-01T00:00:00+00:00</time>
        <ele>175.0</ele>
      </trkpt>
      <trkpt lat="43.550828" lon="10.402297">
        <time>1970-01-01T00:00:00+00:00</time>
        <ele>177.0</ele>
      </trkpt>
      <trkpt lat="43.550764" lon="10.402479">
        <time>1970-01-01T00:00:00+00:00</time>
        <ele>181.0</ele>
      </trkpt>
      <trkpt lat="43.550639" lon="10.402624">
        <time>1970-01-01T00:00:00+00:00</time>
        <ele>182.0</ele>
      </trkpt>
      <trkpt lat="43.550456" lon="10.402686">
        <time>1970-01-01T00:00:00+00:00</time>
        <ele>181.0</ele>
      </trkpt>
      <trkpt lat="43.55028" lon="10.402778">
        <time>1970-01-01T00:00:00+00:00</time>
        <ele>180.0</ele>
      </trkpt>
      <trkpt lat="43.549942" lon="10.403155">
        <time>1970-01-01T00:00:00+00:00</time>
        <ele>187.0</ele>
      </trkpt>
      <trkpt lat="43.549776" lon="10.403277">
        <time>1970-01-01T00:00:00+00:00</time>
        <ele>188.0</ele>
      </trkpt>
      <trkpt lat="43.549378" lon="10.403669">
        <time>1970-01-01T00:00:00+00:00</time>
        <ele>188.0</ele>
      </trkpt>
      <trkpt lat="43.549207" lon="10.404011">
        <time>1970-01-01T00:00:00+00:00</time>
        <ele>193.0</ele>
      </trkpt>
      <trkpt lat="43.54911" lon="10.404311">
        <time>1970-01-01T00:00:00+00:00</time>
        <ele>198.0</ele>
      </trkpt>
      <trkpt lat="43.549016" lon="10.404488">
        <time>1970-01-01T00:00:00+00:00</time>
        <ele>201.0</ele>
      </trkpt>
      <trkpt lat="43.548925" lon="10.404571">
        <time>1970-01-01T00:00:00+00:00</time>
        <ele>202.0</ele>
      </trkpt>
      <trkpt lat="43.548845" lon="10.404587">
        <time>1970-01-01T00:00:00+00:00</time>
        <ele>202.0</ele>
      </trkpt>
      <trkpt lat="43.548708" lon="10.40452">
        <time>1970-01-01T00:00:00+00:00</time>
        <ele>199.0</ele>
      </trkpt>
      <trkpt lat="43.548566" lon="10.40453">
        <time>1970-01-01T00:00:00+00:00</time>
        <ele>197.0</ele>
      </trkpt>
      <trkpt lat="43.548514" lon="10.40457">
        <time>1970-01-01T00:00:00+00:00</time>
        <ele>197.0</ele>
      </trkpt>
      <trkpt lat="43.548442" lon="10.404679">
        <time>1970-01-01T00:00:00+00:00</time>
        <ele>199.0</ele>
      </trkpt>
      <trkpt lat="43.548381" lon="10.404851">
        <time>1970-01-01T00:00:00+00:00</time>
        <ele>202.0</ele>
      </trkpt>
      <trkpt lat="43.548275" lon="10.404937">
        <time>1970-01-01T00:00:00+00:00</time>
        <ele>203.0</ele>
      </trkpt>
      <trkpt lat="43.548149" lon="10.404949">
        <time>1970-01-01T00:00:00+00:00</time>
        <ele>204.0</ele>
      </trkpt>
      <trkpt lat="43.548067" lon="10.404929">
        <time>1970-01-01T00:00:00+00:00</time>
        <ele>204.0</ele>
      </trkpt>
      <trkpt lat="43.547995" lon="10.40486">
        <time>1970-01-01T00:00:00+00:00</time>
        <ele>204.0</ele>
      </trkpt>
      <trkpt lat="43.547825" lon="10.404551">
        <time>1970-01-01T00:00:00+00:00</time>
        <ele>204.0</ele>
      </trkpt>
      <trkpt lat="43.547711" lon="10.404424">
        <time>1970-01-01T00:00:00+00:00</time>
        <ele>204.0</ele>
      </trkpt>
      <trkpt lat="43.547663" lon="10.40437">
        <time>1970-01-01T00:00:00+00:00</time>
        <ele>204.0</ele>
      </trkpt>
      <trkpt lat="43.547591" lon="10.40433">
        <time>1970-01-01T00:00:00+00:00</time>
        <ele>204.0</ele>
      </trkpt>
      <trkpt lat="43.547291" lon="10.404239">
        <time>1970-01-01T00:00:00+00:00</time>
        <ele>203.0</ele>
      </trkpt>
      <trkpt lat="43.547097" lon="10.404153">
        <time>1970-01-01T00:00:00+00:00</time>
        <ele>199.0</ele>
      </trkpt>
      <trkpt lat="43.546945" lon="10.404072">
        <time>1970-01-01T00:00:00+00:00</time>
        <ele>198.0</ele>
      </trkpt>
      <trkpt lat="43.546908" lon="10.403938">
        <time>1970-01-01T00:00:00+00:00</time>
        <ele>199.0</ele>
      </trkpt>
      <trkpt lat="43.546968" lon="10.403853">
        <time>1970-01-01T00:00:00+00:00</time>
        <ele>200.0</ele>
      </trkpt>
      <trkpt lat="43.547005" lon="10.403624">
        <time>1970-01-01T00:00:00+00:00</time>
        <ele>203.0</ele>
      </trkpt>
      <trkpt lat="43.547056" lon="10.403433">
        <time>1970-01-01T00:00:00+00:00</time>
        <ele>204.0</ele>
      </trkpt>
      <trkpt lat="43.547198" lon="10.403078">
        <time>1970-01-01T00:00:00+00:00</time>
        <ele>207.0</ele>
      </trkpt>
      <trkpt lat="43.547344" lon="10.402868">
        <time>1970-01-01T00:00:00+00:00</time>
        <ele>207.0</ele>
      </trkpt>
      <trkpt lat="43.547516" lon="10.402877">
        <time>1970-01-01T00:00:00+00:00</time>
        <ele>203.0</ele>
      </trkpt>
      <trkpt lat="43.547625" lon="10.402807">
        <time>1970-01-01T00:00:00+00:00</time>
        <ele>201.0</ele>
      </trkpt>
      <trkpt lat="43.547699" lon="10.4027">
        <time>1970-01-01T00:00:00+00:00</time>
        <ele>200.0</ele>
      </trkpt>
      <trkpt lat="43.5478" lon="10.402533">
        <time>1970-01-01T00:00:00+00:00</time>
        <ele>199.0</ele>
      </trkpt>
      <trkpt lat="43.547846" lon="10.402374">
        <time>1970-01-01T00:00:00+00:00</time>
        <ele>198.0</ele>
      </trkpt>
      <trkpt lat="43.547902" lon="10.402261">
        <time>1970-01-01T00:00:00+00:00</time>
        <ele>196.0</ele>
      </trkpt>
      <trkpt lat="43.547967" lon="10.401916">
        <time>1970-01-01T00:00:00+00:00</time>
        <ele>192.0</ele>
      </trkpt>
      <trkpt lat="43.547899" lon="10.401912">
        <time>1970-01-01T00:00:00+00:00</time>
        <ele>195.0</ele>
      </trkpt>
      <trkpt lat="43.547829" lon="10.401797">
        <time>1970-01-01T00:00:00+00:00</time>
        <ele>196.0</ele>
      </trkpt>
      <trkpt lat="43.547779" lon="10.401602">
        <time>1970-01-01T00:00:00+00:00</time>
        <ele>196.0</ele>
      </trkpt>
      <trkpt lat="43.547716" lon="10.401464">
        <time>1970-01-01T00:00:00+00:00</time>
        <ele>196.0</ele>
      </trkpt>
      <trkpt lat="43.547604" lon="10.401396">
        <time>1970-01-01T00:00:00+00:00</time>
        <ele>198.0</ele>
      </trkpt>
      <trkpt lat="43.547247" lon="10.401306">
        <time>1970-01-01T00:00:00+00:00</time>
        <ele>199.0</ele>
      </trkpt>
      <trkpt lat="43.547093" lon="10.40118">
        <time>1970-01-01T00:00:00+00:00</time>
        <ele>196.0</ele>
      </trkpt>
      <trkpt lat="43.546938" lon="10.401144">
        <time>1970-01-01T00:00:00+00:00</time>
        <ele>195.0</ele>
      </trkpt>
      <trkpt lat="43.546938" lon="10.401144">
        <time>1970-01-01T00:00:00+00:00</time>
        <ele>195.0</ele>
      </trkpt>
      <trkpt lat="43.547093" lon="10.40118">
        <time>1970-01-01T00:00:00+00:00</time>
        <ele>196.0</ele>
      </trkpt>
      <trkpt lat="43.547247" lon="10.401306">
        <time>1970-01-01T00:00:00+00:00</time>
        <ele>199.0</ele>
      </trkpt>
      <trkpt lat="43.547604" lon="10.401396">
        <time>1970-01-01T00:00:00+00:00</time>
        <ele>198.0</ele>
      </trkpt>
      <trkpt lat="43.547716" lon="10.401464">
        <time>1970-01-01T00:00:00+00:00</time>
        <ele>196.0</ele>
      </trkpt>
      <trkpt lat="43.547779" lon="10.401602">
        <time>1970-01-01T00:00:00+00:00</time>
        <ele>196.0</ele>
      </trkpt>
      <trkpt lat="43.547829" lon="10.401797">
        <time>1970-01-01T00:00:00+00:00</time>
        <ele>196.0</ele>
      </trkpt>
      <trkpt lat="43.547899" lon="10.401912">
        <time>1970-01-01T00:00:00+00:00</time>
        <ele>195.0</ele>
      </trkpt>
      <trkpt lat="43.547967" lon="10.401916">
        <time>1970-01-01T00:00:00+00:00</time>
        <ele>192.0</ele>
      </trkpt>
      <trkpt lat="43.548107" lon="10.401797">
        <time>1970-01-01T00:00:00+00:00</time>
        <ele>187.0</ele>
      </trkpt>
      <trkpt lat="43.548369" lon="10.401667">
        <time>1970-01-01T00:00:00+00:00</time>
        <ele>182.0</ele>
      </trkpt>
      <trkpt lat="43.548468" lon="10.401381">
        <time>1970-01-01T00:00:00+00:00</time>
        <ele>180.0</ele>
      </trkpt>
      <trkpt lat="43.548553" lon="10.401051">
        <time>1970-01-01T00:00:00+00:00</time>
        <ele>179.0</ele>
      </trkpt>
      <trkpt lat="43.548622" lon="10.400579">
        <time>1970-01-01T00:00:00+00:00</time>
        <ele>175.0</ele>
      </trkpt>
      <trkpt lat="43.548669" lon="10.400377">
        <time>1970-01-01T00:00:00+00:00</time>
        <ele>174.0</ele>
      </trkpt>
      <trkpt lat="43.548801" lon="10.400273">
        <time>1970-01-01T00:00:00+00:00</time>
        <ele>174.0</ele>
      </trkpt>
      <trkpt lat="43.548918" lon="10.400272">
        <time>1970-01-01T00:00:00+00:00</time>
        <ele>174.0</ele>
      </trkpt>
      <trkpt lat="43.548985" lon="10.400363">
        <time>1970-01-01T00:00:00+00:00</time>
        <ele>174.0</ele>
      </trkpt>
      <trkpt lat="43.549041" lon="10.400551">
        <time>1970-01-01T00:00:00+00:00</time>
        <ele>175.0</ele>
      </trkpt>
      <trkpt lat="43.549167" lon="10.400723">
        <time>1970-01-01T00:00:00+00:00</time>
        <ele>174.0</ele>
      </trkpt>
      <trkpt lat="43.549305" lon="10.400756">
        <time>1970-01-01T00:00:00+00:00</time>
        <ele>171.0</ele>
      </trkpt>
      <trkpt lat="43.549423" lon="10.400721">
        <time>1970-01-01T00:00:00+00:00</time>
        <ele>170.0</ele>
      </trkpt>
      <trkpt lat="43.549641" lon="10.400582">
        <time>1970-01-01T00:00:00+00:00</time>
        <ele>169.0</ele>
      </trkpt>
      <trkpt lat="43.550013" lon="10.400433">
        <time>1970-01-01T00:00:00+00:00</time>
        <ele>167.0</ele>
      </trkpt>
      <trkpt lat="43.550308" lon="10.400233">
        <time>1970-01-01T00:00:00+00:00</time>
        <ele>164.0</ele>
      </trkpt>
      <trkpt lat="43.550515" lon="10.400045">
        <time>1970-01-01T00:00:00+00:00</time>
        <ele>161.0</ele>
      </trkpt>
      <trkpt lat="43.550655" lon="10.399887">
        <time>1970-01-01T00:00:00+00:00</time>
        <ele>161.0</ele>
      </trkpt>
      <trkpt lat="43.55078" lon="10.399715">
        <time>1970-01-01T00:00:00+00:00</time>
        <ele>159.0</ele>
      </trkpt>
      <trkpt lat="43.550915" lon="10.399576">
        <time>1970-01-01T00:00:00+00:00</time>
        <ele>157.0</ele>
      </trkpt>
      <trkpt lat="43.551022" lon="10.399174">
        <time>1970-01-01T00:00:00+00:00</time>
        <ele>156.0</ele>
      </trkpt>
      <trkpt lat="43.551138" lon="10.398831">
        <time>1970-01-01T00:00:00+00:00</time>
        <ele>156.0</ele>
      </trkpt>
      <trkpt lat="43.551196" lon="10.39872">
        <time>1970-01-01T00:00:00+00:00</time>
        <ele>155.0</ele>
      </trkpt>
      <trkpt lat="43.551235" lon="10.398571">
        <time>1970-01-01T00:00:00+00:00</time>
        <ele>155.0</ele>
      </trkpt>
      <trkpt lat="43.551236" lon="10.398407">
        <time>1970-01-01T00:00:00+00:00</time>
        <ele>154.0</ele>
      </trkpt>
      <trkpt lat="43.551203" lon="10.398284">
        <time>1970-01-01T00:00:00+00:00</time>
        <ele>153.0</ele>
      </trkpt>
      <trkpt lat="43.551237" lon="10.398134">
        <time>1970-01-01T00:00:00+00:00</time>
        <ele>152.0</ele>
      </trkpt>
      <trkpt lat="43.551336" lon="10.397979">
        <time>1970-01-01T00:00:00+00:00</time>
        <ele>151.0</ele>
      </trkpt>
      <trkpt lat="43.551377" lon="10.397837">
        <time>1970-01-01T00:00:00+00:00</time>
        <ele>150.0</ele>
      </trkpt>
      <trkpt lat="43.551431" lon="10.397759">
        <time>1970-01-01T00:00:00+00:00</time>
        <ele>149.0</ele>
      </trkpt>
      <trkpt lat="43.551515" lon="10.397636">
        <time>1970-01-01T00:00:00+00:00</time>
        <ele>149.0</ele>
      </trkpt>
      <trkpt lat="43.551725" lon="10.397434">
        <time>1970-01-01T00:00:00+00:00</time>
        <ele>148.0</ele>
      </trkpt>
      <trkpt lat="43.55178" lon="10.397384">
        <time>1970-01-01T00:00:00+00:00</time>
        <ele>148.0</ele>
      </trkpt>
      <trkpt lat="43.551846" lon="10.39738">
        <time>1970-01-01T00:00:00+00:00</time>
        <ele>147.0</ele>
      </trkpt>
      <trkpt lat="43.551945" lon="10.397286">
        <time>1970-01-01T00:00:00+00:00</time>
        <ele>146.0</ele>
      </trkpt>
      <trkpt lat="43.552047" lon="10.397308">
        <time>1970-01-01T00:00:00+00:00</time>
        <ele>144.0</ele>
      </trkpt>
      <trkpt lat="43.55217" lon="10.397273">
        <time>1970-01-01T00:00:00+00:00</time>
        <ele>143.0</ele>
      </trkpt>
      <trkpt lat="43.552369" lon="10.397367">
        <time>1970-01-01T00:00:00+00:00</time>
        <ele>141.0</ele>
      </trkpt>
      <trkpt lat="43.552464" lon="10.397493">
        <time>1970-01-01T00:00:00+00:00</time>
        <ele>140.0</ele>
      </trkpt>
      <trkpt lat="43.552563" lon="10.397673">
        <time>1970-01-01T00:00:00+00:00</time>
        <ele>139.0</ele>
      </trkpt>
      <trkpt lat="43.552601" lon="10.397666">
        <time>1970-01-01T00:00:00+00:00</time>
        <ele>138.0</ele>
      </trkpt>
      <trkpt lat="43.552634" lon="10.397695">
        <time>1970-01-01T00:00:00+00:00</time>
        <ele>138.0</ele>
      </trkpt>
      <trkpt lat="43.552637" lon="10.397876">
        <time>1970-01-01T00:00:00+00:00</time>
        <ele>136.0</ele>
      </trkpt>
      <trkpt lat="43.552341" lon="10.398651">
        <time>1970-01-01T00:00:00+00:00</time>
        <ele>134.0</ele>
      </trkpt>
      <trkpt lat="43.552211" lon="10.398849">
        <time>1970-01-01T00:00:00+00:00</time>
        <ele>134.0</ele>
      </trkpt>
      <trkpt lat="43.55196" lon="10.399388">
        <time>1970-01-01T00:00:00+00:00</time>
        <ele>134.0</ele>
      </trkpt>
      <trkpt lat="43.551781" lon="10.399566">
        <time>1970-01-01T00:00:00+00:00</time>
        <ele>135.0</ele>
      </trkpt>
      <trkpt lat="43.551892" lon="10.399658">
        <time>1970-01-01T00:00:00+00:00</time>
        <ele>134.0</ele>
      </trkpt>
      <trkpt lat="43.552217" lon="10.3997">
        <time>1970-01-01T00:00:00+00:00</time>
        <ele>135.0</ele>
      </trkpt>
      <trkpt lat="43.552267" lon="10.39976">
        <time>1970-01-01T00:00:00+00:00</time>
        <ele>136.0</ele>
      </trkpt>
      <trkpt lat="43.552363" lon="10.399785">
        <time>1970-01-01T00:00:00+00:00</time>
        <ele>138.0</ele>
      </trkpt>
      <trkpt lat="43.552441" lon="10.399797">
        <time>1970-01-01T00:00:00+00:00</time>
        <ele>139.0</ele>
      </trkpt>
      <trkpt lat="43.552639" lon="10.399765">
        <time>1970-01-01T00:00:00+00:00</time>
        <ele>141.0</ele>
      </trkpt>
      <trkpt lat="43.552819" lon="10.399826">
        <time>1970-01-01T00:00:00+00:00</time>
        <ele>146.0</ele>
      </trkpt>
      <trkpt lat="43.553349" lon="10.399855">
        <time>1970-01-01T00:00:00+00:00</time>
        <ele>153.0</ele>
      </trkpt>
      <trkpt lat="43.55344" lon="10.399897">
        <time>1970-01-01T00:00:00+00:00</time>
        <ele>156.0</ele>
      </trkpt>
      <trkpt lat="43.55355" lon="10.399826">
        <time>1970-01-01T00:00:00+00:00</time>
        <ele>154.0</ele>
      </trkpt>
      <trkpt lat="43.553939" lon="10.399719">
        <time>1970-01-01T00:00:00+00:00</time>
        <ele>151.0</ele>
      </trkpt>
      <trkpt lat="43.554342" lon="10.399639">
        <time>1970-01-01T00:00:00+00:00</time>
        <ele>142.0</ele>
      </trkpt>
      <trkpt lat="43.55471" lon="10.399485">
        <time>1970-01-01T00:00:00+00:00</time>
        <ele>134.0</ele>
      </trkpt>
      <trkpt lat="43.555039" lon="10.399402">
        <time>1970-01-01T00:00:00+00:00</time>
        <ele>129.0</ele>
      </trkpt>
      <trkpt lat="43.555319" lon="10.399373">
        <time>1970-01-01T00:00:00+00:00</time>
        <ele>127.0</ele>
      </trkpt>
      <trkpt lat="43.555256" lon="10.399592">
        <time>1970-01-01T00:00:00+00:00</time>
        <ele>128.0</ele>
      </trkpt>
      <trkpt lat="43.555296" lon="10.399832">
        <time>1970-01-01T00:00:00+00:00</time>
        <ele>129.0</ele>
      </trkpt>
      <trkpt lat="43.555399" lon="10.400057">
        <time>1970-01-01T00:00:00+00:00</time>
        <ele>129.0</ele>
      </trkpt>
    </trkseg>
  </trk>
</gpx>
